Flag for U.S.A. Weather past 2 weeks in Pasco, Washington, U.S.A.

Now
58 °F

Clear.


Feels Like: 58 °F
Forecast: 42 / 72 °F
Wind: 3 mph from Northwest

Location: Tri-Cities Airport

Current Time: Sep 3, 2015 at 11:46:18 PM

Latest Report: Sep 3, 2015 at 10:53 PM


Visibility: 10 mi

Pressure: 29.90 "Hg

Humidity: 54%

Dew point: 41 °F

Location of PascoLocation

Historic Weather in Pasco — Graph

°F

Pasco temperature yesterday

Maximum temperature yesterday: 79 °F (at 4:53 PM)
Minimum temperature yesterday: 61 °F (at 10:53 PM)
Average temperature yesterday: 70 °F

Past Weeks' High & Low Weather Summary

 TemperatureHumidityPressure
High96 °F (Aug 27, 3:53 PM)90% (Aug 25, 6:53 AM)30.15 "Hg (Aug 25, 6:53 AM)
Low45 °F (Sep 3, 6:53 AM)16% (Aug 20, 2:53 PM)29.49 "Hg (Aug 29, 7:53 AM)
Average71 °F47%29.86 "Hg
* Reported Aug 19 9:53 PM — Sep 3 9:53 PM, Pasco, Weather by CustomWeather, © 2015

Note: Actual official high and low records may vary slightly from our data, if they occured in-between our weather recording intervals... More about our weather records

Advertising

Pasco weather history for previous 24 hours

 ConditionsComfort  
Time TempWeatherWind HumidityBarometerVisibility
9:53 PM
Thu, Sep 3
58 °FClear.5 mph51%29.89 "Hg10 mi
8:53 PM63 °FClear.3 mph41%29.89 "Hg10 mi
7:53 PM69 °FSunny.6 mph23%29.87 "Hg10 mi
6:53 PM71 °FSunny.3 mph24%29.88 "Hg10 mi
5:53 PM72 °FSunny.7 mph24%29.89 "Hg10 mi
4:53 PM72 °FSunny.3 mph24%29.89 "Hg10 mi
3:53 PM73 °FSunny.13 mph24%29.90 "Hg10 mi
2:53 PM72 °FSunny.6 mph25%29.91 "Hg10 mi
1:53 PM71 °FPassing clouds.8 mph27%29.92 "Hg10 mi
12:53 PM69 °FPassing clouds.5 mph32%29.94 "Hg10 mi
11:53 AM67 °FSunny.3 mph36%29.96 "Hg10 mi
10:53 AM66 °FSunny.No wind36%29.97 "Hg10 mi
9:53 AM63 °FSunny.3 mph43%29.98 "Hg10 mi
8:53 AM61 °FSunny.6 mph46%29.97 "Hg10 mi
7:53 AM56 °FSunny.No wind60%29.97 "Hg10 mi
6:53 AM45 °FClear.3 mph86%29.96 "Hg10 mi
5:53 AM46 °FClear.5 mph83%29.95 "Hg10 mi
4:53 AM48 °FClear.3 mph77%29.93 "Hg10 mi
3:53 AM50 °FClear.3 mph74%29.93 "Hg10 mi
2:53 AM55 °FPassing clouds.3 mph62%29.91 "Hg10 mi
1:53 AM59 °FOvercast.5 mph49%29.90 "Hg10 mi
12:53 AM61 °FOvercast.6 mph48%29.89 "Hg10 mi
11:53 PM
Wed, Sep 2
61 °FPassing clouds.8 mph46%29.87 "Hg10 mi
Weather by CustomWeather, © 2015

See weather overviewHow to use our weather pages